Home > Weather > Evansville > Past weeks

Flag for U.S.A. Weather for the Past 2 Weeks in Evansville, Indiana, U.S.A.

Now
21 °F

Scattered clouds.


Feels Like: 11 °F
Forecast: 17 / 26 °F
Wind: 8 mph from Northwest

Location: Evansville Regional Airport

Current Time: Feb 10, 2016 at 12:02:12 PM

Latest Report: Feb 10, 2016 at 10:54 AM


Visibility: 10 mi

Pressure: 30.21 "Hg

Humidity: 52%

Dew point: 6 °F

Location of EvansvilleLocation

Historic Weather in Evansville — Graph

°F

Evansville Temperature Yesterday

Maximum temperature yesterday: 24 °F (at 12:54 AM)
Minimum temperature yesterday: 20 °F (at 11:54 PM)
Average temperature yesterday: 23 °F

High & Low Weather Summary for the Past Weeks

 TemperatureHumidityPressure
High67 °F (Jan 31, 1:54 PM)88% (Feb 8, 5:54 AM)30.45 "Hg (Feb 8, 5:54 AM)
Low15 °F (Feb 10, 6:54 AM)29% (Feb 7, 1:54 PM)29.54 "Hg (Feb 2, 9:54 PM)
Average41 °F61%30.03 "Hg
* Reported Jan 26 10:54 AM — Feb 10 10:54 AM, Evansville, Weather by CustomWeather, © 2016

Note: Actual official high and low records may vary slightly from our data, if they occured in-between our weather recording intervals... More about our weather records

Advertising

Evansville Weather History for the Previous 24 Hours

 ConditionsComfort  
Time TempWeatherWind HumidityBarometerVisibility
10:54 AM
Wed, Feb 10
21 °FScattered clouds.8 mph52%30.21 "Hg10 mi
9:54 AM20 °FSunny.14 mph52%30.22 "Hg10 mi
8:54 AM18 °FPassing clouds.12 mph59%30.21 "Hg10 mi
7:54 AM16 °FSunny.9 mph62%30.18 "Hg10 mi
6:54 AM15 °FScattered clouds.7 mph64%30.17 "Hg10 mi
5:54 AM16 °FPartly sunny.14 mph59%30.15 "Hg10 mi
4:54 AM17 °FOvercast.10 mph59%30.15 "Hg10 mi
3:54 AM18 °FOvercast.9 mph62%30.13 "Hg9 mi
2:54 AM18 °FLight snow. Overcast.8 mph68%30.11 "Hg6 mi
1:54 AM19 °FOvercast.9 mph59%30.10 "Hg10 mi
12:54 AM19 °FOvercast.8 mph65%30.09 "Hg10 mi
11:54 PM
Tue, Feb 9
20 °FLight snow. Overcast.9 mph65%30.09 "Hg9 mi
10:54 PM21 °FLight snow. Overcast.6 mph68%30.09 "Hg8 mi
9:53 PM21 °FLight snow. Overcast.8 mph71%30.09 "Hg6 mi
8:54 PM22 °FOvercast.6 mph60%30.09 "Hg10 mi
7:54 PM21 °FOvercast.7 mph71%30.09 "Hg10 mi
6:57 PM21 °FLight snow. Mostly cloudy.12 mph74%30.07 "Hg2 mi
5:54 PM22 °FLight snow. Mostly cloudy.9 mph72%30.07 "Hg2 mi
4:54 PM23 °FLight snow. Mostly cloudy.9 mph68%30.05 "Hg2 mi
4:01 PM23 °FLight snow. Cloudy.12 mph68%30.01 "Hg3 mi
2:54 PM24 °FLight snow. Mostly cloudy.14 mph60%29.99 "Hg4 mi
1:54 PM24 °FLight snow. Mostly cloudy.12 mph68%29.96 "Hg1 mi
12:54 PM24 °FOvercast.15 mph60%29.95 "Hg10 mi
Weather by CustomWeather, © 2016

See weather overviewHow to use our weather pages